Time,TemperatureF,DewpointF,PressureIn,WindDirection,WindDirectionDegrees,WindSpeedMPH,WindSpeedGustMPH,Humidity,HourlyPrecipIn,Conditions,Clouds,dailyrainin,SoftwareType,DateUTC
2013-01-18 00:00:00,40.5,10.7,30.27,North,0,0.0,0.0,29,0.00,,,0.00,WUHU216HW,2013-01-18 08:00:00,
2013-01-18 00:05:00,40.5,10.7,30.27,North,0,0.0,0.0,29,0.00,,,0.00,WUHU216HW,2013-01-18 08:05:00,
2013-01-18 00:30:00,40.0,10.2,30.27,North,0,0.0,0.0,29,0.00,,,0.00,WUHU216HW,2013-01-18 08:30:00,
2013-01-18 00:35:00,40.0,10.2,30.27,North,0,0.0,0.0,29,0.00,,,0.00,WUHU216HW,2013-01-18 08:35:00,
2013-01-18 01:00:00,40.0,10.2,30.26,North,0,0.0,0.0,29,0.00,,,0.00,WUHU216HW,2013-01-18 09:00:00,
2013-01-18 01:05:00,40.0,10.2,30.26,North,0,0.0,0.0,29,0.00,,,0.00,WUHU216HW,2013-01-18 09:05:00,
2013-01-18 01:30:00,39.4,10.6,30.26,North,0,0.0,0.0,30,0.00,,,0.00,WUHU216HW,2013-01-18 09:30:00,
2013-01-18 01:35:00,39.4,10.6,30.26,North,0,0.0,0.0,30,0.00,,,0.00,WUHU216HW,2013-01-18 09:35:00,
2013-01-18 02:00:00,38.9,10.1,30.26,North,0,0.0,0.0,30,0.00,,,0.00,WUHU216HW,2013-01-18 10:00:00,
2013-01-18 02:05:00,38.9,10.1,30.26,North,0,0.0,0.0,30,0.00,,,0.00,WUHU216HW,2013-01-18 10:05:00,
2013-01-18 02:30:00,38.5,10.4,30.26,North,0,0.0,0.0,31,0.00,,,0.00,WUHU216HW,2013-01-18 10:30:00,
2013-01-18 02:35:00,38.5,10.4,30.26,North,0,0.0,0.0,31,0.00,,,0.00,WUHU216HW,2013-01-18 10:35:00,
2013-01-18 03:00:00,38.3,10.3,30.26,North,0,0.0,0.0,31,0.00,,,0.00,WUHU216HW,2013-01-18 11:00:00,
2013-01-18 03:05:00,38.3,10.3,30.26,North,0,0.0,0.0,31,0.00,,,0.00,WUHU216HW,2013-01-18 11:05:00,
2013-01-18 03:30:00,38.0,10.6,30.25,North,0,0.0,0.0,32,0.00,,,0.00,WUHU216HW,2013-01-18 11:30:00,
2013-01-18 03:35:00,38.0,10.6,30.25,North,0,0.0,0.0,32,0.00,,,0.00,WUHU216HW,2013-01-18 11:35:00,
2013-01-18 03:50:00,38.0,10.6,30.25,North,0,0.0,0.0,32,0.00,,,0.00,WUHU216HW,2013-01-18 11:50:00,
2013-01-18 03:55:00,38.0,10.6,30.25,North,0,0.0,0.0,32,0.00,,,0.00,WUHU216HW,2013-01-18 11:55:00,
2013-01-18 04:00:00,38.0,10.0,30.25,North,0,0.0,0.0,31,0.00,,,0.00,WUHU216HW,2013-01-18 12:00:00,
2013-01-18 04:05:00,38.0,10.0,30.25,North,0,0.0,0.0,31,0.00,,,0.00,WUHU216HW,2013-01-18 12:05:00,
2013-01-18 04:30:00,37.4,10.1,30.25,North,0,0.0,0.0,32,0.00,,,0.00,WUHU216HW,2013-01-18 12:30:00,
2013-01-18 04:35:00,37.4,10.1,30.25,North,0,0.0,0.0,32,0.00,,,0.00,WUHU216HW,2013-01-18 12:35:00,
2013-01-18 05:00:00,37.4,10.1,30.25,North,0,0.0,0.0,32,0.00,,,0.00,WUHU216HW,2013-01-18 13:00:00,
2013-01-18 05:05:00,37.4,10.1,30.25,North,0,0.0,0.0,32,0.00,,,0.00,WUHU216HW,2013-01-18 13:05:00,
2013-01-18 05:30:00,37.1,9.8,30.25,North,0,0.0,0.0,32,0.00,,,0.00,WUHU216HW,2013-01-18 13:30:00,
2013-01-18 05:35:00,37.1,9.8,30.25,North,0,0.0,0.0,32,0.00,,,0.00,WUHU216HW,2013-01-18 13:35:00,
2013-01-18 06:00:00,36.5,10.0,30.25,North,0,0.0,0.0,33,0.00,,,0.00,WUHU216HW,2013-01-18 14:00:00,
2013-01-18 06:05:00,36.5,10.0,30.25,North,0,0.0,0.0,33,0.00,,,0.00,WUHU216HW,2013-01-18 14:05:00,
2013-01-18 06:30:00,36.0,9.5,30.26,North,0,0.0,0.0,33,0.00,,,0.00,WUHU216HW,2013-01-18 14:30:00,
2013-01-18 06:35:00,36.0,9.5,30.26,North,0,0.0,0.0,33,0.00,,,0.00,WUHU216HW,2013-01-18 14:35:00,
2013-01-18 07:00:00,35.6,10.4,30.26,North,0,0.0,0.0,35,0.00,,,0.00,WUHU216HW,2013-01-18 15:00:00,
2013-01-18 07:05:00,35.6,10.4,30.26,North,0,0.0,0.0,35,0.00,,,0.00,WUHU216HW,2013-01-18 15:05:00,
2013-01-18 07:30:00,35.6,11.1,30.27,North,0,0.0,0.0,36,0.00,,,0.00,WUHU216HW,2013-01-18 15:30:00,
2013-01-18 07:35:00,35.6,11.1,30.27,North,0,0.0,0.0,36,0.00,,,0.00,WUHU216HW,2013-01-18 15:35:00,
2013-01-18 08:00:00,36.4,12.4,30.28,North,0,0.0,0.0,37,0.00,,,0.00,WUHU216HW,2013-01-18 16:00:00,
2013-01-18 08:05:00,36.4,12.4,30.28,North,0,0.0,0.0,37,0.00,,,0.00,WUHU216HW,2013-01-18 16:05:00,
2013-01-18 08:30:00,38.0,13.2,30.30,North,0,0.0,0.0,36,0.00,,,0.00,WUHU216HW,2013-01-18 16:30:00,
2013-01-18 08:35:00,38.0,13.2,30.30,North,0,0.0,0.0,36,0.00,,,0.00,WUHU216HW,2013-01-18 16:35:00,
2013-01-18 09:00:00,40.3,14.1,30.30,North,0,0.0,0.0,34,0.00,,,0.00,WUHU216HW,2013-01-18 17:00:00,
2013-01-18 09:05:00,40.3,14.1,30.30,North,0,0.0,0.0,34,0.00,,,0.00,WUHU216HW,2013-01-18 17:05:00,
2013-01-18 09:30:00,42.1,15.0,30.31,North,0,0.0,0.0,33,0.00,,,0.00,WUHU216HW,2013-01-18 17:30:00,
2013-01-18 09:35:00,42.1,15.0,30.31,North,0,0.0,0.0,33,0.00,,,0.00,WUHU216HW,2013-01-18 17:35:00,
2013-01-18 10:00:00,44.3,15.5,30.31,North,0,0.0,0.0,31,0.00,,,0.00,WUHU216HW,2013-01-18 18:00:00,
2013-01-18 10:05:00,44.3,15.5,30.31,North,0,0.0,0.0,31,0.00,,,0.00,WUHU216HW,2013-01-18 18:05:00,
2013-01-18 10:30:00,46.3,15.7,30.30,North,0,0.0,0.0,29,0.00,,,0.00,WUHU216HW,2013-01-18 18:30:00,
2013-01-18 10:35:00,46.3,15.7,30.30,North,0,0.0,0.0,29,0.00,,,0.00,WUHU216HW,2013-01-18 18:35:00,
2013-01-18 11:00:00,47.9,15.2,30.28,North,0,0.0,0.0,27,0.00,,,0.00,WUHU216HW,2013-01-18 19:00:00,
2013-01-18 11:05:00,47.9,15.2,30.28,North,0,0.0,0.0,27,0.00,,,0.00,WUHU216HW,2013-01-18 19:05:00,
2013-01-18 11:30:00,50.0,16.1,30.26,North,0,0.0,0.0,26,0.00,,,0.00,WUHU216HW,2013-01-18 19:30:00,
2013-01-18 11:35:00,50.0,16.1,30.26,North,0,0.0,0.0,26,0.00,,,0.00,WUHU216HW,2013-01-18 19:35:00,
2013-01-18 12:00:00,51.5,15.5,30.25,North,0,0.0,0.0,24,0.00,,,0.00,WUHU216HW,2013-01-18 20:00:00,
2013-01-18 12:05:00,51.5,15.5,30.25,North,0,0.0,0.0,24,0.00,,,0.00,WUHU216HW,2013-01-18 20:05:00,
2013-01-18 12:30:00,52.4,15.3,30.23,North,0,0.0,0.0,23,0.00,,,0.00,WUHU216HW,2013-01-18 20:30:00,
2013-01-18 12:35:00,52.4,15.3,30.23,North,0,0.0,0.0,23,0.00,,,0.00,WUHU216HW,2013-01-18 20:35:00,
2013-01-18 13:00:00,53.3,15.1,30.23,North,0,0.0,0.0,22,0.00,,,0.00,WUHU216HW,2013-01-18 21:00:00,
2013-01-18 13:05:00,53.3,15.1,30.23,North,0,0.0,0.0,22,0.00,,,0.00,WUHU216HW,2013-01-18 21:05:00,
2013-01-18 13:30:00,53.6,15.4,30.22,North,0,0.0,0.0,22,0.00,,,0.00,WUHU216HW,2013-01-18 21:30:00,
2013-01-18 13:35:00,53.6,15.4,30.22,North,0,0.0,0.0,22,0.00,,,0.00,WUHU216HW,2013-01-18 21:35:00,
2013-01-18 14:00:00,54.2,15.8,30.21,North,0,0.0,0.0,22,0.00,,,0.00,WUHU216HW,2013-01-18 22:00:00,
2013-01-18 14:05:00,54.2,15.8,30.21,North,0,0.0,0.0,22,0.00,,,0.00,WUHU216HW,2013-01-18 22:05:00,
2013-01-18 14:30:00,54.2,15.8,30.21,North,0,0.0,0.0,22,0.00,,,0.00,WUHU216HW,2013-01-18 22:30:00,
2013-01-18 14:35:00,54.2,15.8,30.21,North,0,0.0,0.0,22,0.00,,,0.00,WUHU216HW,2013-01-18 22:35:00,
2013-01-18 15:00:00,54.0,15.8,30.20,North,0,0.0,0.0,22,0.00,,,0.00,WUHU216HW,2013-01-18 23:00:00,
2013-01-18 15:05:00,54.0,15.8,30.20,North,0,0.0,0.0,22,0.00,,,0.00,WUHU216HW,2013-01-18 23:05:00,
2013-01-18 15:30:00,53.8,15.6,30.20,North,0,0.0,0.0,22,0.00,,,0.00,WUHU216HW,2013-01-18 23:30:00,
2013-01-18 15:35:00,53.8,15.6,30.20,North,0,0.0,0.0,22,0.00,,,0.00,WUHU216HW,2013-01-18 23:35:00,
2013-01-18 16:00:00,53.3,15.1,30.20,North,0,0.0,0.0,22,0.00,,,0.00,WUHU216HW,2013-01-19 00:00:00,
2013-01-18 16:05:00,53.3,15.1,30.20,North,0,0.0,0.0,22,0.00,,,0.00,WUHU216HW,2013-01-19 00:05:00,
2013-01-18 16:30:00,52.4,15.3,30.20,North,0,0.0,0.0,23,0.00,,,0.00,WUHU216HW,2013-01-19 00:30:00,
2013-01-18 16:35:00,52.4,15.3,30.20,North,0,0.0,0.0,23,0.00,,,0.00,WUHU216HW,2013-01-19 00:35:00,
2013-01-18 17:00:00,51.1,15.2,30.20,North,0,0.0,0.0,24,0.00,,,0.00,WUHU216HW,2013-01-19 01:00:00,
2013-01-18 17:05:00,51.1,15.2,30.20,North,0,0.0,0.0,24,0.00,,,0.00,WUHU216HW,2013-01-19 01:05:00,
2013-01-18 17:30:00,49.3,13.7,30.20,North,0,0.0,0.0,24,0.00,,,0.00,WUHU216HW,2013-01-19 01:30:00,
2013-01-18 17:35:00,49.3,13.7,30.20,North,0,0.0,0.0,24,0.00,,,0.00,WUHU216HW,2013-01-19 01:35:00,
2013-01-18 18:00:00,48.6,13.1,30.21,North,0,0.0,0.0,24,0.00,,,0.00,WUHU216HW,2013-01-19 02:00:00,
2013-01-18 18:05:00,48.6,13.1,30.21,North,0,0.0,0.0,24,0.00,,,0.00,WUHU216HW,2013-01-19 02:05:00,
2013-01-18 18:30:00,49.1,12.6,30.21,North,0,0.0,0.0,23,0.00,,,0.00,WUHU216HW,2013-01-19 02:30:00,
2013-01-18 18:35:00,49.1,12.6,30.21,North,0,0.0,0.0,23,0.00,,,0.00,WUHU216HW,2013-01-19 02:35:00,
2013-01-18 19:00:00,49.3,12.8,30.21,North,0,0.0,0.0,23,0.00,,,0.00,WUHU216HW,2013-01-19 03:00:00,
2013-01-18 19:05:00,49.3,12.8,30.21,North,0,0.0,0.0,23,0.00,,,0.00,WUHU216HW,2013-01-19 03:05:00,
2013-01-18 19:30:00,49.1,12.6,30.21,North,0,0.0,0.0,23,0.00,,,0.00,WUHU216HW,2013-01-19 03:30:00,
2013-01-18 19:35:00,49.1,12.6,30.21,North,0,0.0,0.0,23,0.00,,,0.00,WUHU216HW,2013-01-19 03:35:00,
2013-01-18 20:00:00,48.8,12.2,30.21,North,0,0.0,0.0,23,0.00,,,0.00,WUHU216HW,2013-01-19 04:00:00,
2013-01-18 20:05:00,48.8,12.2,30.21,North,0,0.0,0.0,23,0.00,,,0.00,WUHU216HW,2013-01-19 04:05:00,
2013-01-18 20:30:00,49.3,11.8,30.21,North,0,0.0,0.0,22,0.00,,,0.00,WUHU216HW,2013-01-19 04:30:00,
2013-01-18 20:35:00,49.3,11.8,30.21,North,0,0.0,0.0,22,0.00,,,0.00,WUHU216HW,2013-01-19 04:35:00,
2013-01-18 21:02:00,49.0,11.5,30.22,North,0,0.0,0.0,22,0.00,,,0.00,WUHU216HW,2013-01-19 05:02:00,
2013-01-18 21:03:00,49.0,11.5,30.22,North,0,0.0,0.0,22,0.00,,,0.00,WUHU216HW,2013-01-19 05:03:00,
2013-01-18 21:08:00,49.0,11.5,30.22,North,0,0.0,0.0,22,0.00,,,0.00,WUHU216HW,2013-01-19 05:08:00,
2013-01-18 21:30:00,47.7,10.5,30.23,North,0,0.0,0.0,22,0.00,,,0.00,WUHU216HW,2013-01-19 05:30:00,
2013-01-18 21:35:00,47.7,10.5,30.23,North,0,0.0,0.0,22,0.00,,,0.00,WUHU216HW,2013-01-19 05:35:00,
2013-01-18 22:00:00,47.0,10.8,30.23,North,0,0.0,0.0,23,0.00,,,0.00,WUHU216HW,2013-01-19 06:00:00,
2013-01-18 22:05:00,47.0,10.8,30.23,North,0,0.0,0.0,23,0.00,,,0.00,WUHU216HW,2013-01-19 06:05:00,
2013-01-18 22:30:00,46.3,10.2,30.23,North,0,0.0,0.0,23,0.00,,,0.00,WUHU216HW,2013-01-19 06:30:00,
2013-01-18 22:35:00,46.3,10.2,30.23,North,0,0.0,0.0,23,0.00,,,0.00,WUHU216HW,2013-01-19 06:35:00,
2013-01-18 23:00:00,45.4,10.4,30.23,North,0,0.0,0.0,24,0.00,,,0.00,WUHU216HW,2013-01-19 07:00:00,
2013-01-18 23:05:00,45.4,10.4,30.23,North,0,0.0,0.0,24,0.00,,,0.00,WUHU216HW,2013-01-19 07:05:00,
2013-01-18 23:30:00,45.2,10.2,30.23,North,0,0.0,0.0,24,0.00,,,0.00,WUHU216HW,2013-01-19 07:30:00,
2013-01-18 23:35:00,45.2,10.2,30.23,North,0,0.0,0.0,24,0.00,,,0.00,WUHU216HW,2013-01-19 07:35:00,